Wind_Speed
11 11 11 11 11 11 11 11 10 10 9 9 8 8 7 7 7 6 6 5 5 4 4 4 4 3 3 3 4 4 3 3 3 3 2 2 2 2 3 3 4 4 4
13 13 13 12 12 12 12 12 12 11 11 10 10 9 9 8 8 7 7 7 6 5 5 4 5 5 4 4 4 4 4 4 4 4 4 4 4 4 4 4 5 5 5
14 14 14 14 14 13 13 13 13 13 12 12 11 11 11 10 9 9 8 8 7 7 6 6 6 6 6 6 5 5 5 5 5 5 5 5 5 5 5 6 6 6 6
16 15 15 15 15 15 15 15 15 15 15 14 14 13 13 12 12 11 10 10 9 8 8 7 7 7 7 7 7 7 7 7 7 7 7 7 7 7 7 7 7 7 8
18 18 17 17 17 17 17 17 17 17 17 16 16 16 15 14 13 13 13 12 11 10 10 9 9 9 9 9 9 9 9 9 9 9 9 9 9 9 9 9 8 8 9
20 20 19 19 18 18 18 19 19 19 19 18 18 18 17 16 16 15 15 14 13 12 12 11 11 10 11 11 11 11 11 11 10 10 10 10 11 10 10 10 10 10 10
22 22 21 21 20 20 20 20 20 20 20 20 20 20 19 18 18 17 17 16 15 15 14 14 13 12 13 12 12 12 12 12 12 12 12 12 12 12 12 12 12 12 12
23 23 23 23 22 21 21 21 22 22 22 22 22 21 21 21 20 20 19 19 18 17 17 16 16 15 15 14 15 14 14 14 14 14 14 14 14 14 14 14 14 13 13
26 26 25 25 24 23 23 24 24 24 24 24 24 24 23 23 22 22 22 21 20 20 19 19 18 18 17 16 17 16 16 16 16 16 15 15 15 15 15 15 15 15 15
28 28 28 27 27 26 26 26 26 26 26 26 26 26 25 24 24 24 23 23 23 22 21 21 21 20 19 19 19 18 18 18 18 18 17 17 17 17 17 17 17 17 16
31 30 30 29 29 29 29 28 28 28 28 27 27 27 27 26 26 26 25 25 24 24 24 23 23 22 22 21 21 20 20 20 20 20 19 19 19 18 18 18 18 18 18
33 32 32 32 32 32 32 31 31 31 30 29 29 29 29 29 29 28 27 27 27 26 26 26 25 25 24 24 23 23 23 22 22 22 21 21 21 21 20 20 20 20 20
34 34 34 34 34 34 34 33 33 32 32 31 31 31 31 31 31 30 30 29 29 29 28 28 27 27 26 26 25 25 24 24 24 24 23 23 23 23 23 22 22 22 22
35 35 36 36 36 35 35 35 34 34 33 33 33 33 32 32 32 32 32 31 30 30 30 29 29 28 28 27 27 27 27 27 26 26 25 25 25 25 25 25 25 24 24
37 37 37 37 37 37 37 37 36 36 35 35 35 35 35 34 34 35 35 33 33 33 32 31 31 30 29 29 28 28 28 28 28 28 27 27 27 27 27 26 27 27 26
39 39 39 39 39 39 39 39 38 37 37 37 36 37 37 37 37 37 37 36 35 34 34 33 32 32 31 31 31 30 30 30 30 30 30 30 30 30 29 29 29 29 29
40 40 40 40 41 41 41 41 41 40 40 39 38 38 38 39 39 39 38 38 37 36 35 35 35 34 34 33 33 33 32 32 32 32 32 32 32 32 32 31 31 31 31
41 41 41 41 42 42 43 43 43 42 41 42 41 41 40 40 41 40 40 40 40 39 38 37 37 37 36 36 36 35 35 35 35 34 34 34 34 34 34 34 34 33 32
42 43 43 42 43 44 45 45 45 44 43 44 43 43 43 43 42 42 41 41 42 42 40 40 39 39 39 38 38 38 37 37 37 36 36 36 36 36 36 36 35 35 34
42 43 43 43 44 45 46 47 47 46 46 46 45 46 46 45 45 45 44 43 43 43 43 42 41 41 40 40 40 40 39 38 38 38 37 37 36 36 37 37 37 36 36
42 42 43 43 44 45 46 47 48 48 48 48 47 47 47 47 47 46 45 45 45 45 44 43 43 42 42 42 42 41 40 40 39 39 39 38 38 37 37 38 38 38 37
42 42 42 43 44 45 46 47 48 48 49 49 49 48 48 48 48 48 48 46 46 45 45 45 44 43 43 44 44 44 42 42 41 41 40 40 39 38 38 38 38 38 38
42 42 43 43 44 45 46 47 48 49 49 49 49 49 50 50 50 50 49 49 47 46 46 46 45 44 44 45 45 44 44 43 43 42 41 40 39 39 39 40 39 39 39
42 43 43 44 45 45 46 47 48 49 49 49 50 50 51 51 52 52 51 50 50 49 49 48 47 46 46 45 45 46 46 45 45 43 42 41 41 41 41 41 40 40 39
42 43 44 44 45 46 47 48 48 49 49 50 50 51 51 52 52 53 54 53 52 51 50 50 49 48 47 47 47 47 47 46 46 45 44 43 43 43 43 43 42 41 41
43 43 44 45 46 47 47 48 49 50 50 51 52 52 53 53 54 54 54 55 54 53 52 51 50 49 48 47 47 47 48 48 48 47 46 45 45 44 44 43 43 43 42
Wind_Direction
239 238 237 235 232 228 224 224 226 225 224 223 221 222 223 223 221 218 215 211 211 213 212 212 209 210 209 207 209 209 210 215 228 242 253 263 270 278 293 304 312 318 322
243 240 239 238 236 232 229 227 228 229 230 229 226 228 229 228 226 224 224 222 219 222 226 224 223 222 218 218 220 221 223 229 238 250 259 265 272 279 286 292 297 301 308
244 243 241 240 237 235 234 233 231 231 232 232 229 230 231 231 231 229 226 228 228 232 235 235 234 233 232 234 236 236 236 241 248 257 264 268 274 278 282 287 291 296 302
246 245 245 242 240 239 238 237 235 234 233 233 233 234 233 234 235 232 230 232 234 238 240 240 239 240 242 242 243 245 245 250 257 263 267 270 272 275 279 283 286 290 294
248 247 246 245 243 242 241 240 239 237 236 236 236 237 236 236 237 236 235 237 237 240 244 245 243 247 248 247 246 248 251 255 259 263 267 270 271 274 277 280 282 286 290
249 248 248 247 246 244 242 241 241 240 239 239 238 238 238 239 240 239 237 239 241 242 244 247 250 252 253 253 252 253 254 257 260 265 268 270 271 273 275 278 280 282 285
248 249 249 249 247 245 244 242 242 242 242 242 240 240 240 241 241 241 240 242 244 245 245 248 252 256 256 256 256 257 258 260 263 266 268 269 270 272 274 276 280 281 285
249 249 249 249 249 248 246 245 244 243 243 244 244 242 242 242 243 243 243 244 245 245 246 249 252 256 260 261 259 258 261 263 266 269 270 270 270 271 273 275 278 280 283
250 249 249 248 248 249 249 248 247 245 245 244 245 245 244 244 244 245 245 245 246 247 247 250 252 255 258 261 260 258 260 264 267 269 270 269 270 271 272 274 276 278 282
249 249 249 249 249 249 249 249 248 247 246 245 246 246 245 245 245 246 247 247 248 248 249 251 254 256 257 259 258 259 261 264 266 268 268 268 269 270 271 272 274 276 281
249 250 250 250 250 250 251 250 247 248 248 247 247 247 246 246 247 246 246 248 248 249 250 252 254 257 258 259 259 260 262 264 266 267 267 267 268 269 269 271 272 274 278
250 251 251 251 251 251 251 250 247 248 249 248 248 249 248 248 248 248 248 248 249 250 251 252 253 257 258 258 260 261 263 264 266 267 267 268 267 268 268 269 270 272 275
251 251 251 252 252 253 252 249 247 248 248 248 248 248 249 249 248 250 250 250 250 251 252 253 253 255 257 258 259 261 263 264 264 266 268 268 268 268 268 268 269 271 273
254 254 253 253 253 252 250 248 247 248 248 249 248 248 248 249 249 250 251 250 251 252 253 254 254 255 257 258 259 260 262 263 263 265 267 268 269 269 269 269 269 270 272
254 254 254 253 253 252 250 247 247 247 247 248 248 249 249 250 251 251 251 251 251 252 252 254 255 256 257 258 260 260 261 262 263 264 267 268 269 269 269 270 269 270 271
254 254 254 253 253 252 249 247 247 247 247 248 249 249 248 249 251 252 252 251 252 253 253 253 255 256 257 258 259 260 261 262 263 264 266 267 268 269 269 270 271 270 270
255 254 253 253 252 251 249 247 248 248 249 248 249 250 250 250 251 252 252 252 252 252 253 253 254 256 257 258 259 260 262 263 264 265 265 267 268 269 270 270 271 271 270
255 254 254 252 251 249 248 248 248 249 249 249 250 251 250 251 252 253 253 253 253 254 253 254 255 255 257 258 259 260 261 263 264 265 266 267 268 268 269 270 270 271 270
255 254 254 252 251 249 249 249 249 249 249 250 250 251 251 251 252 253 254 255 255 254 254 254 254 256 257 258 259 260 261 262 263 265 266 267 267 267 268 269 270 270 271
255 254 253 252 251 250 250 250 250 249 250 250 251 251 252 252 253 253 254 254 255 255 255 255 254 256 257 258 259 260 261 261 262 264 266 267 267 267 268 268 269 270 270
255 254 252 252 252 251 250 249 249 250 250 252 252 252 252 252 253 253 254 254 256 256 256 256 256 256 257 257 259 259 259 261 262 263 265 265 266 267 268 269 269 269 270
255 254 253 252 251 251 250 250 250 250 251 252 253 253 253 252 252 253 254 254 255 256 256 256 257 257 258 258 258 258 259 260 261 263 263 264 265 267 268 269 270 270 270
255 255 254 253 252 252 251 251 251 251 252 252 253 253 253 253 253 253 254 253 253 255 256 257 257 256 258 258 258 258 259 260 261 262 263 264 267 267 268 269 269 270 270
255 255 255 253 253 254 253 253 252 252 252 253 253 254 254 254 254 254 253 253 254 255 255 256 257 257 257 258 259 259 260 261 262 262 263 264 265 267 267 267 269 270 270
256 256 256 255 255 254 254 254 253 253 253 253 254 254 254 254 254 254 253 253 253 254 255 255 256 256 256 258 259 260 261 262 262 262 263 264 265 266 266 267 268 269 270
257 257 258 257 256 255 255 254 254 253 254 254 254 255 255 254 254 254 254 253 254 254 254 255 256 256 257 257 258 260 261 261 262 263 264 264 265 266 266 267 268 269 270
Height
5855 5855 5856 5856 5857 5857 5858 5858 5859 5860 5860 5860 5861 5861 5861 5862 5862 5863 5863 5863 5863 5863 5863 5864 5864 5864 5864 5864 5864 5865 5865 5865 5865 5865 5865 5865 5864 5864 5864 5864 5863 5863 5862
5852 5853 5854 5854 5855 5855 5856 5856 5857 5858 5858 5859 5859 5860 5860 5860 5861 5861 5862 5862 5862 5862 5863 5863 5863 5863 5863 5864 5864 5864 5864 5864 5864 5864 5864 5864 5864 5863 5863 5863 5863 5862 5862
5850 5851 5851 5852 5853 5853 5854 5854 5855 5856 5856 5857 5857 5858 5858 5859 5859 5860 5860 5861 5861 5861 5861 5862 5862 5862 5862 5863 5863 5863 5863 5863 5863 5863 5863 5863 5862 5862 5862 5862 5862 5861 5861
5847 5848 5849 5849 5850 5851 5851 5852 5853 5853 5854 5854 5855 5856 5856 5857 5858 5858 5859 5859 5859 5860 5860 5860 5860 5861 5861 5861 5861 5861 5861 5862 5862 5861 5861 5861 5861 5861 5861 5860 5860 5860 5859
5844 5845 5845 5846 5847 5848 5848 5849 5850 5850 5851 5852 5853 5853 5854 5855 5855 5856 5856 5857 5857 5858 5858 5858 5859 5859 5859 5859 5860 5860 5860 5860 5860 5859 5859 5859 5859 5859 5859 5859 5858 5858 5858
5840 5841 5842 5843 5843 5844 5845 5846 5847 5847 5848 5849 5850 5851 5851 5852 5853 5853 5854 5855 5855 5855 5856 5856 5856 5856 5857 5857 5857 5858 5858 5857 5857 5857 5857 5857 5857 5857 5857 5857 5856 5856 5856
5835 5836 5838 5839 5840 5840 5841 5842 5843 5844 5845 5846 5846 5847 5848 5849 5850 5850 5851 5852 5852 5853 5853 5853 5854 5854 5854 5855 5855 5855 5855 5855 5855 5855 5854 5854 5854 5854 5854 5854 5854 5854 5853
5831 5832 5833 5834 5835 5836 5837 5838 5839 5840 5841 5842 5843 5844 5845 5845 5846 5847 5848 5848 5849 5850 5850 5851 5851 5851 5851 5852 5852 5852 5852 5852 5852 5852 5851 5851 5851 5851 5851 5851 5851 5851 5850
5825 5826 5828 5829 5830 5831 5832 5833 5835 5836 5836 5837 5838 5839 5840 5841 5842 5843 5844 5845 5845 5846 5847 5847 5847 5848 5848 5848 5849 5849 5849 5849 5849 5849 5848 5848 5848 5848 5848 5848 5848 5848 5847
5819 5821 5822 5823 5825 5826 5827 5828 5829 5831 5832 5833 5834 5835 5836 5837 5838 5839 5839 5840 5841 5842 5842 5843 5843 5844 5844 5845 5845 5845 5845 5845 5845 5845 5845 5845 5845 5845 5845 5845 5844 5844 5844
5813 5815 5816 5817 5819 5820 5821 5822 5824 5825 5826 5827 5828 5829 5830 5831 5832 5833 5834 5835 5836 5837 5838 5838 5839 5840 5840 5840 5841 5841 5841 5841 5841 5841 5841 5841 5841 5841 5841 5841 5841 5840 5840
5806 5808 5809 5811 5812 5813 5815 5816 5817 5819 5820 5821 5822 5824 5825 5826 5827 5828 5829 5830 5831 5832 5832 5833 5834 5834 5835 5836 5836 5836 5837 5837 5837 5836 5837 5837 5837 5837 5836 5836 5836 5836 5836
5799 5800 5802 5803 5804 5805 5807 5809 5810 5812 5813 5815 5816 5817 5819 5820 5821 5822 5823 5824 5825 5826 5827 5827 5828 5829 5830 5830 5831 5831 5831 5832 5832 5832 5832 5832 5832 5832 5832 5832 5832 5831 5831
5792 5793 5794 5795 5796 5797 5799 5801 5803 5805 5806 5808 5809 5811 5812 5813 5814 5815 5816 5817 5818 5819 5820 5821 5822 5823 5823 5824 5825 5825 5826 5826 5826 5827 5827 5827 5827 5827 5827 5826 5826 5826 5826
5783 5784 5785 5786 5787 5789 5790 5792 5795 5797 5799 5801 5802 5803 5805 5806 5807 5808 5809 5809 5811 5812 5813 5814 5815 5816 5817 5818 5818 5819 5820 5820 5820 5821 5821 5821 5821 5821 5821 5821 5821 5821 5821
5774 5775 5776 5778 5779 5780 5782 5784 5787 5789 5791 5793 5794 5796 5797 5798 5799 5800 5802 5802 5804 5805 5806 5807 5808 5809 5810 5811 5812 5812 5813 5813 5814 5814 5814 5815 5815 5815 5814 5814 5814 5814 5814
5764 5766 5767 5768 5769 5771 5773 5776 5778 5781 5783 5784 5786 5788 5789 5790 5791 5792 5794 5795 5796 5797 5798 5800 5800 5801 5803 5804 5804 5805 5805 5806 5806 5807 5807 5807 5807 5807 5807 5807 5807 5807 5807
5754 5756 5757 5759 5760 5762 5764 5767 5769 5772 5773 5775 5777 5779 5781 5782 5783 5784 5785 5786 5787 5789 5790 5791 5793 5794 5794 5795 5796 5797 5798 5798 5799 5799 5799 5799 5800 5800 5800 5800 5800 5800 5800
5744 5745 5747 5749 5751 5753 5755 5758 5760 5762 5764 5766 5768 5769 5771 5773 5774 5775 5776 5777 5778 5780 5781 5783 5784 5785 5786 5787 5788 5789 5789 5790 5790 5791 5791 5791 5791 5791 5791 5792 5792 5792 5792
5733 5735 5736 5738 5740 5742 5744 5747 5749 5751 5754 5756 5757 5759 5761 5763 5764 5766 5767 5768 5769 5770 5772 5773 5774 5776 5777 5778 5778 5779 5780 5781 5781 5782 5782 5782 5782 5782 5783 5783 5783 5783 5783
5723 5724 5725 5727 5729 5731 5733 5736 5738 5741 5743 5745 5747 5748 5751 5752 5754 5756 5757 5758 5759 5761 5762 5763 5765 5766 5767 5768 5769 5770 5771 5772 5773 5773 5773 5773 5774 5773 5773 5774 5774 5774 5774
5712 5713 5715 5716 5718 5720 5722 5724 5727 5729 5731 5733 5735 5737 5739 5741 5743 5745 5747 5748 5749 5751 5752 5754 5755 5756 5757 5758 5759 5760 5762 5763 5763 5764 5764 5764 5764 5764 5764 5764 5764 5765 5765
5700 5702 5703 5705 5707 5709 5711 5713 5715 5717 5719 5721 5724 5725 5727 5729 5731 5733 5736 5738 5739 5740 5742 5743 5744 5746 5747 5748 5748 5750 5751 5753 5754 5755 5755 5755 5755 5755 5755 5755 5755 5755 5755
5689 5691 5692 5694 5696 5697 5699 5701 5703 5705 5708 5710 5712 5713 5715 5717 5719 5721 5723 5725 5727 5729 5730 5732 5733 5735 5736 5737 5738 5739 5741 5742 5743 5744 5745 5745 5745 5745 5745 5745 5745 5745 5745
5678 5680 5681 5682 5684 5685 5687 5689 5691 5693 5695 5697 5699 5701 5703 5704 5706 5708 5710 5712 5715 5717 5718 5720 5722 5723 5724 5726 5727 5728 5729 5730 5731 5732 5734 5735 5735 5735 5735 5735 5735 5735 5735
5667 5668 5669 5670 5672 5673 5675 5676 5678 5680 5682 5684 5686 5688 5690 5691 5693 5694 5696 5699 5701 5703 5705 5707 5709 5711 5712 5714 5715 5717 5718 5719 5720 5721 5722 5724 5724 5724 5723 5724 5724 5724 5724